Flag for U.S.A. Weather past 2 weeks in Lakewood, Colorado, U.S.A.

Now
85 °F

Passing clouds.


Feels Like: 82 °F
Forecast: 57 / 88 °F
Wind: 6 mph from East

Location: Centennial Airport

Current Time: Aug 4, 2015 at 2:26:00 PM

Latest Report: Aug 4, 2015 at 1:53 PM


Visibility: 10 mi

Pressure: 29.85 "Hg (24.68 "Hg at 1683m altitude)

Humidity: 20%

Dew point: 39 °F

Location of LakewoodLocation

Historic Weather in Lakewood — Graph

°F

Lakewood temperature yesterday

Maximum temperature yesterday: 81 °F (at 2:53 PM)
Minimum temperature yesterday: 62 °F (at 10:53 PM)
Average temperature yesterday: 70 °F

Past Weeks' High & Low Weather Summary

 TemperatureHumidityPressure
High93 °F (Jul 27, 3:53 PM)86% (Jul 27, 5:53 AM)30.19 "Hg (Jul 27, 5:53 AM)
Low57 °F (Jul 29, 2:53 AM)13% (Aug 1, 3:53 PM)29.61 "Hg (Jul 27, 3:53 PM)
Average74 °F44%29.93 "Hg
* Reported Jul 20 12:53 PM — Aug 4 12:53 PM, Lakewood, Weather by CustomWeather, © 2015

Note: Actual official high and low records may vary slightly from our data, if they occured in-between our weather recording intervals... More about our weather records

Advertising

Lakewood weather history for previous 24 hours

 ConditionsComfort  
Time TempWeatherWind HumidityBarometerVisibility
12:53 PM
Tue, Aug 4
81 °FPassing clouds.No wind25%29.88 "Hg10 mi
11:53 AM80 °FPassing clouds.7 mph27%29.90 "Hg10 mi
10:53 AM77 °FPartly sunny.9 mph31%29.93 "Hg10 mi
9:53 AM77 °FBroken clouds.6 mph29%29.92 "Hg10 mi
8:53 AM73 °FPartly sunny.3 mph36%29.92 "Hg10 mi
7:53 AM66 °FScattered clouds.3 mph54%29.91 "Hg10 mi
6:53 AM61 °FPassing clouds.6 mph60%29.90 "Hg10 mi
5:53 AM61 °FPassing clouds.3 mph58%29.89 "Hg10 mi
4:53 AM59 °FPassing clouds.6 mph64%29.88 "Hg10 mi
3:53 AM58 °FPassing clouds.6 mph72%29.90 "Hg10 mi
2:53 AM62 °FPassing clouds.10 mph62%29.87 "Hg10 mi
1:53 AM63 °FPassing clouds.8 mph60%29.88 "Hg10 mi
12:53 AM63 °FPassing clouds.3 mph60%29.89 "Hg10 mi
11:53 PM
Mon, Aug 3
64 °FPassing clouds.13 mph61%29.90 "Hg10 mi
10:53 PM62 °FPassing clouds.8 mph73%29.92 "Hg10 mi
9:53 PM65 °FPassing clouds.10 mph70%29.92 "Hg10 mi
8:53 PM67 °FBroken clouds.10 mph63%29.93 "Hg10 mi
7:53 PM69 °FBroken clouds.12 mph57%29.91 "Hg10 mi
6:53 PM70 °FPartly sunny.10 mph57%29.91 "Hg10 mi
5:53 PM70 °FPartly sunny.14 mph55%29.92 "Hg10 mi
4:53 PM75 °FLight rain. Mostly cloudy.8 mph40%29.90 "Hg10 mi
3:53 PM75 °FPartly sunny.18 mph43%29.91 "Hg10 mi
2:53 PM81 °FOvercast.12 mph33%29.89 "Hg10 mi
Weather by CustomWeather, © 2015

See weather overviewHow to use our weather pages